Yaogan 35 01 zu 01 xing

operational
NORAD ID: 49390 Int'l Des: 2021-101 Owner: ZZB Country: CN Constellation: yaogan
LEOCIRCULAR

About Yaogan 35 01 zu 01 xing

Description loading...

Live Position

Loading 3D Globe...

Upcoming Passes

Altitude History

Altitude vs Time

uPlot chart will show altitude changes over time

Two-Line Element Set

1 49390U 21101A 26062.62580727 .00012702 00000-0 50035-3 0 9991
2 49390 34.9894 222.6925 0005065 129.4816 230.6347 15.24785561240745
Epoch: Mar 3, 2026 • Age: 22 hours

Current Status

Altitude 495.3 km
Velocity 7.62 km/s
Sub-Earth Point -21.43°S, 60.93°W
Launch Date Nov 6, 2021
Age 4.3 years
Type military

Technical Details

Classification Payload
Mass 300.00 kg
Dry Mass 300.00 kg
Total Mass 300.00 kg
Length 2.50 m
Diameter 2.50 m
Span 5.00 m
Shape Box + 2 Pan
Manufacturer DFHZ
Phase Status In Orbit
Owner/State ZZB/CN

Large Constellations

Loading constellations...